Location: Unspecified
(43.0000°N, 0.0000°E)
Time: 13:17:53
(UTC+00:00)

Gurwin Techsat 1B - Visible Passes

Search period start: 23 July 2019 00:00
Search period end: 02 August 2019 00:00
Orbit: 812 x 813 km, 98.7° (Epoch: 22 July)

Date Brightness Start Highest point End Pass type
(mag) Time Alt. Az. Time Alt. Az. Time Alt. Az.
23 Jul 8.6 01:55:19 10° NNE 02:00:40 82° ESE 02:02:26 44° S visible
23 Jul 10.6 03:36:59 10° NNW 03:39:54 15° WNW 03:42:48 10° W visible
24 Jul 9.1 01:32:34 10° NNE 01:37:47 51° E 01:39:15 40° SSE visible
24 Jul 10.1 03:13:16 10° NNW 03:17:20 23° WNW 03:20:27 14° WSW visible
25 Jul 9.8 01:10:02 10° NNE 01:14:48 32° E 01:16:03 29° ESE visible
25 Jul 9.5 02:49:57 10° N 02:54:43 34° WNW 02:57:15 22° WSW visible
26 Jul 10.4 00:47:51 10° NE 00:51:45 20° E 00:52:51 19° ESE visible
26 Jul 8.9 02:26:49 10° N 02:32:00 54° WNW 02:34:03 34° SW visible
27 Jul 10.9 00:26:28 10° ENE 00:28:37 12° E 00:29:40 12° E visible
27 Jul 8.5 02:03:51 10° NNE 02:09:13 85° WNW 02:10:51 46° SSW visible
27 Jul 10.7 03:46:04 10° NNW 03:48:19 13° WNW 03:50:33 10° W visible
28 Jul 8.9 01:41:04 10° NNE 01:46:21 61° ESE 01:47:39 47° SSE visible
28 Jul 10.3 03:22:04 10° NNW 03:25:47 20° WNW 03:28:52 12° W visible
29 Jul 9.5 01:18:27 10° NNE 01:23:24 38° E 01:24:28 35° SE visible
29 Jul 9.7 02:58:38 10° N 03:03:11 29° WNW 03:05:40 20° WSW visible
30 Jul 10.2 00:56:06 10° NE 01:00:23 24° E 01:01:16 23° ESE visible
30 Jul 9.1 02:35:26 10° N 02:40:30 45° WNW 02:42:28 32° WSW visible
31 Jul 10.7 00:34:17 10° NE 00:37:17 15° E 00:38:04 15° E visible
31 Jul 8.6 02:12:25 10° N 02:17:45 72° WNW 02:19:16 47° SW visible
31 Jul 10.8 03:55:31 10° NW 03:56:43 11° NW 03:57:54 10° WNW visible
01 Aug 8.6 01:49:33 10° NNE 01:54:54 73° ESE 01:56:04 54° SSE visible
01 Aug 10.4 03:30:57 10° NNW 03:34:13 17° WNW 03:37:15 11° W visible
